Location: Tel Aviv
(32.0670°N, 34.7670°E)
Time: 09:36:02
(UTC+02:00)

Courier 1B Rocket - Visible Passes

Search period start: 05 December 2023 00:00
Search period end: 15 December 2023 00:00
Orbit: 920 x 1201 km, 28.2° (Epoch: 04 December)

Date Brightness Start Highest point End Pass type
(mag) Time Alt. Az. Time Alt. Az. Time Alt. Az.
05 Dec 7.5 18:21:00 10° SW 18:23:11 12° SSW 18:25:23 10° S visible
06 Dec 7.4 17:18:18 10° WSW 17:22:18 18° SSW 17:26:20 10° SSE visible
08 Dec 7.8 17:11:34 10° SW 17:13:12 11° SSW 17:14:53 10° SSW visible
14 Dec 7.8 05:23:00 10° S 05:27:31 16° SSE 05:31:57 10° ESE visible
